Flag for Spain

Past Weather in San Sebastián de La Gomera, Canary Islands, Spain — Yesterday and Last 2 Weeks

Currently: 72 °F. Scattered clouds. (Weather station: La Gomera/aeropuerto, Spain). See more current weather

Past Weather in San Sebastián de La Gomera — Graph

°F

San Sebastián de La Gomera Temperature Yesterday

Maximum temperature yesterday: 77 °F (at 3:30 pm)
Minimum temperature yesterday: 66 °F (at 6:00 am)
Average temperature yesterday: 71 °F

High & Low Weather Summary for the Past Weeks

 TemperatureHumidityPressure
High93 °F (Jun 11, 10:30 am)88% (Jun 8, 2:00 am)30.27 "Hg (Jun 8, 2:00 am)
Low61 °F (Jun 6, 7:30 am)17% (Jun 11, 10:30 am)29.95 "Hg (Jun 9, 6:00 am)
Average72 °F65%30.10 "Hg
* Reported Jun 3 12:00 pm — Jun 18 12:00 pm, San Sebastián de La Gomera. Weather by CustomWeather, © 2021

Note: Actual official high and low records may vary slightly from our data, if they occured in-between our weather recording intervals... More about our weather records

San Sebastián de La Gomera Weather History for the Previous 24 Hours

Scroll right to see more
 ConditionsComfort  
Time TempWeatherWind HumidityBarometerVisibility
12:00 pm
Fri, Jun 18
72 °FScattered clouds.5 mph69%30.15 "HgN/A
11:30 am73 °FScattered clouds.6 mph65%30.15 "HgN/A
11:00 am73 °FScattered clouds.9 mph69%30.12 "HgN/A
10:30 am73 °FScattered clouds.7 mph69%30.12 "HgN/A
10:00 am72 °FScattered clouds.6 mph73%30.15 "HgN/A
9:30 am72 °FScattered clouds.7 mph65%30.12 "HgN/A
9:00 am70 °FScattered clouds.6 mph69%30.12 "HgN/A
8:30 am70 °FScattered clouds.7 mph69%30.12 "HgN/A
8:00 am70 °FScattered clouds.10 mph69%30.12 "HgN/A
7:30 am68 °FPassing clouds.8 mph78%30.12 "HgN/A
7:00 am68 °FPassing clouds.7 mph78%30.09 "HgN/A
6:30 am68 °FClear.5 mph73%30.09 "Hg10 mi
6:00 am68 °FPassing clouds.5 mph78%30.09 "HgN/A
5:30 am68 °FClear.7 mph78%30.09 "Hg10 mi
5:00 am68 °FClear.7 mph78%30.09 "Hg10 mi
4:30 am70 °FClear.6 mph73%30.09 "Hg10 mi
4:00 am70 °FClear.7 mph69%30.09 "Hg10 mi
3:30 am70 °FClear.5 mph69%30.09 "Hg10 mi
3:00 am70 °FPassing clouds.9 mph73%30.09 "HgN/A
2:30 am70 °FPassing clouds.9 mph73%30.12 "HgN/A
2:00 am70 °FPassing clouds.6 mph73%30.12 "HgN/A
12:30 am72 °FPassing clouds.7 mph65%30.15 "HgN/A
12:00 am72 °FPassing clouds.3 mph69%30.15 "HgN/A
11:30 pm
Thu, Jun 17
72 °FPassing clouds.8 mph65%30.15 "HgN/A
11:00 pm72 °FClear.6 mph65%30.15 "Hg10 mi
10:30 pm70 °FClear.8 mph73%30.12 "Hg10 mi
10:00 pm72 °FClear.7 mph69%30.12 "Hg10 mi
9:30 pm72 °FClear.6 mph69%30.12 "Hg10 mi
9:00 pm72 °FSunny.2 mph69%30.09 "Hg10 mi
8:30 pm72 °FSunny.2 mph69%30.09 "Hg10 mi
8:00 pm72 °FSunny.2 mph69%30.09 "Hg10 mi
7:30 pm73 °FPassing clouds.6 mph65%30.09 "HgN/A
7:00 pm75 °FPassing clouds.6 mph61%30.09 "HgN/A
6:30 pm75 °FPassing clouds.7 mph61%30.09 "HgN/A
6:00 pm75 °FPassing clouds.6 mph65%30.09 "HgN/A
5:30 pm75 °FPassing clouds.7 mph69%30.09 "HgN/A
5:00 pm75 °FPassing clouds.6 mph61%30.09 "HgN/A
4:30 pm73 °FScattered clouds.7 mph65%30.12 "HgN/A
4:00 pm75 °FScattered clouds.8 mph61%30.12 "HgN/A
3:30 pm77 °FScattered clouds.7 mph61%30.12 "HgN/A
3:00 pm75 °FPassing clouds.7 mph65%30.12 "HgN/A
2:30 pm75 °FPassing clouds.6 mph61%30.12 "HgN/A
2:00 pm73 °FScattered clouds.7 mph74%30.12 "HgN/A
1:30 pm73 °FScattered clouds.8 mph74%30.15 "HgN/A
1:00 pm75 °FPassing clouds.9 mph69%30.15 "HgN/A
Weather by CustomWeather, © 2021

See weather overview